CW2378 Weather Reports


time (UTC)temp
F
wind
direction
speed
knots
gust
knots
rain 1hr
in
rain 24hr
in
rain mn
in
humidity
%
barometer
mb
20260504222005 76 176 6.1 13.9 0.00 0.00 0.00 44 1013.4
20260504221506 76 187 5.2 13.9 0.00 0.00 0.00 44 1013.5
20260504221003 76 152 6.1 10.4 0.00 0.00 0.00 44 1013.9
20260504220500 76 207 6.1 10.4 0.00 0.00 0.00 43 1013.8
20260504220006 76 170 5.2 11.3 0.00 0.00 0.00 44 1013.7
20260504215459 76 109 7.8 11.3 0.00 0.00 0.00 42 1013.6
20260504215003 77 170 7.0 11.3 0.00 0.00 0.00 42 1013.6
20260504214000 77 120 6.1 12.2 0.00 0.00 0.00 41 1013.7
20260504213000 78 198 7.0 10.4 0.00 0.00 0.00 40 1013.8
20260504212459 78 180 5.2 12.2 0.00 0.00 0.00 42 1013.6
20260504212000 78 178 7.0 12.2 0.00 0.00 0.00 42 1014.2
20260504211500 79 172 7.0 9.6 0.00 0.00 0.00 41 1014.0
20260504211004 79 186 5.2 10.4 0.00 0.00 0.00 39 1013.9
20260504210459 79 186 6.1 11.3 0.00 0.00 0.00 38 1013.7
20260504210000 79 203 7.8 11.3 0.00 0.00 0.00 38 1013.9
20260504205004 78 171 7.0 11.3 0.00 0.00 0.00 39 1014.2
20260504204500 79 187 6.1 10.4 0.00 0.00 0.00 38 1014.3
20260504204001 79 128 7.0 11.3 0.00 0.00 0.00 37 1014.4
20260504203459 79 136 7.8 11.3 0.00 0.00 0.00 37 1014.4
20260504203001 79 211 6.1 9.6 0.00 0.00 0.00 37 1014.4
20260504202459 79 140 5.2 12.2 0.00 0.00 0.00 37 1014.5
20260504201959 78 198 6.1 12.2 0.00 0.00 0.00 36 1014.6
20260504201500 79 210 7.8 11.3 0.00 0.00 0.00 37 1014.8
20260504200459 79 168 5.2 11.3 0.00 0.00 0.00 38 1014.9
20260504200000 79 207 5.2 10.4 0.00 0.00 0.00 37 1015.0
20260504194459 79 179 6.1 10.4 0.00 0.00 0.00 36 1015.1
20260504194000 79 163 7.0 12.2 0.00 0.00 0.00 37 1015.5
20260504193459 78 198 7.0 14.8 0.00 0.00 0.00 37 1015.4
20260504193225 79 211 9.6 14.8 0.00 0.00 0.00 36 1015.4
20260504192500 79 172 4.3 11.3 0.00 0.00 0.00 41 1015.5
20260504192000 78 155 5.2 10.4 0.00 0.00 0.00 40 1015.6
20260504191459 78 182 6.1 9.6 0.00 0.00 0.00 37 1015.6
20260504190959 78 204 6.1 11.3 0.00 0.00 0.00 38 1015.4
20260504185500 79 213 5.2 12.2 0.00 0.00 0.00 38 1015.8
20260504185000 78 146 5.2 12.2 0.00 0.00 0.00 39 1015.8
20260504184501 78 187 5.2 12.2 0.00 0.00 0.00 39 1015.9
20260504184000 78 212 5.2 13.0 0.00 0.00 0.00 39 1016.0
20260504183000 77 192 5.2 13.9 0.00 0.00 0.00 40 1016.0
20260504182500 77 179 7.0 13.9 0.00 0.00 0.00 40 1016.2
20260504181458 78 173 5.2 12.2 0.00 0.00 0.00 41 1016.2
20260504181002 78 230 6.1 12.2 0.00 0.00 0.00 40 1016.1
20260504180459 78 195 6.1 13.0 0.00 0.00 0.00 41 1016.1
20260504180002 78 171 6.1 12.2 0.00 0.00 0.00 42 1016.1
20260504175005 78 226 5.2 11.3 0.00 0.00 0.00 43 1016.2
20260504174500 78 221 7.0 11.3 0.00 0.00 0.00 39 1016.3
20260504174004 78 188 5.2 9.6 0.00 0.00 0.00 42 1016.3
20260504173500 78 189 4.3 7.8 0.00 0.00 0.00 42 1016.3
20260504173005 78 193 5.2 12.2 0.00 0.00 0.00 42 1016.2
20260504172500 77 169 7.0 13.0 0.00 0.00 0.00 43 1016.1
20260504171004 77 220 7.0 13.0 0.00 0.00 0.00 42 1016.2
20260504170504 77 188 6.1 10.4 0.00 0.00 0.00 42 1016.2
20260504151000 73 137 2.6 7.8 0.00 0.00 0.00 51 1016.9
20260504150500 72 192 1.7 7.8 0.00 0.00 0.00 49 1016.8
20260504141004 67 216 1.7 3.5 0.00 0.00 0.00 60 1016.9
20260504140459 67 216 1.7 3.5 0.00 0.00 0.00 61 1017.0
20260504110459 54 201 0.0 0.0 0.00 0.00 0.00 85 1016.1
20260504100459 55 201 0.0 0.0 0.00 0.00 0.00 82 1016.2
20260504081959 56 202 0.0 0.0 0.00 0.00 0.00 80 1016.1
20260504081458 56 202 0.0 0.0 0.00 0.00 0.00 80 1016.0
20260504081000 56 202 0.0 0.0 0.00 0.00 0.00 79 1016.2
20260504080459 56 202 0.0 0.0 0.00 0.00 0.00 79 1016.2
20260504050500 61 202 1.7 2.6 0.00 0.00 0.00 70 1018.0
20260504050005 61 202 1.7 2.6 0.00 0.00 0.00 69 1018.0
20260504045505 61 202 0.9 2.6 0.00 0.00 0.00 68 1017.9
20260504044504 62 202 1.7 3.5 0.00 0.00 0.00 68 1018.0
20260504043500 62 202 2.6 4.3 0.00 0.00 0.00 68 1018.1
20260504043002 62 202 1.7 4.3 0.00 0.00 0.00 67 1018.2
20260504041004 63 201 2.6 6.1 0.00 0.00 0.00 67 1018.3
20260504040500 63 215 1.7 6.1 0.00 0.00 0.00 66 1018.3
20260504040005 63 213 4.3 6.1 0.00 0.00 0.00 67 1018.2
20260504035004 63 225 2.6 5.2 0.00 0.00 0.00 68 1018.2
20260504034504 63 202 2.6 5.2 0.00 0.00 0.00 67 1018.1
20260504034005 63 204 2.6 5.2 0.00 0.00 0.00 67 1018.1
20260504033500 63 203 3.5 5.2 0.00 0.00 0.00 67 1018.2
20260504033006 63 205 2.6 4.3 0.00 0.00 0.00 67 1018.2
20260504032004 62 209 3.5 6.1 0.00 0.00 0.00 67 1018.2
20260504031005 63 217 0.0 0.0 0.00 0.00 0.00 65 1018.2
20260504030003 63 217 0.9 2.6 0.00 0.00 0.00 65 1018.2
20260504025500 63 217 1.7 3.5 0.00 0.00 0.00 64 1018.1
20260504025004 63 217 1.7 3.5 0.00 0.00 0.00 64 1018.1
20260504024501 64 217 1.7 3.5 0.00 0.00 0.00 63 1018.0
20260504024005 64 221 0.9 1.7 0.00 0.00 0.00 62 1017.9
20260504023500 64 221 0.0 2.6 0.00 0.00 0.00 62 1017.8
20260504023003 64 221 0.9 2.6 0.00 0.00 0.00 62 1017.8
20260504022500 65 221 0.0 2.6 0.00 0.00 0.00 60 1017.9
20260504022004 65 221 1.7 2.6 0.00 0.00 0.00 60 1017.8
20260504015504 65 293 0.9 3.5 0.00 0.00 0.00 60 1017.5
20260504015004 65 317 0.9 1.7 0.00 0.00 0.00 59 1017.5
20260504014501 65 317 0.0 0.0 0.00 0.00 0.00 58 1017.5
20260504014004 66 317 0.0 0.0 0.00 0.00 0.00 56 1017.5
20260504013500 66 317 0.0 0.0 0.00 0.00 0.00 55 1017.4
20260504012500 67 317 0.0 2.6 0.00 0.00 0.00 53 1017.3
20260504012004 67 317 0.9 2.6 0.00 0.00 0.00 52 1017.3
20260504011500 67 318 0.0 0.0 0.00 0.00 0.00 51 1017.2
20260504011004 68 318 0.0 0.9 0.00 0.00 0.00 50 1017.1
20260504010502 68 318 0.0 0.9 0.00 0.00 0.00 49 1017.1
20260504010005 69 318 0.9 1.7 0.00 0.00 0.00 49 1017.2
20260504005500 69 318 0.9 1.7 0.00 0.00 0.00 48 1017.2
20260504005004 70 318 0.0 0.0 0.00 0.00 0.00 47 1017.0
20260504004500 70 318 0.0 0.9 0.00 0.00 0.00 45 1017.0
20260504004005 70 318 0.0 1.7 0.00 0.00 0.00 44 1016.9
20260504003459 71 318 0.0 1.7 0.00 0.00 0.00 44 1017.0
20260504003005 71 318 0.9 1.7 0.00 0.00 0.00 43 1016.9
20260504002504 71 318 0.0 3.5 0.00 0.00 0.00 43 1017.0
20260504002009 72 318 1.7 3.5 0.00 0.00 0.00 41 1017.0
20260504001500 72 288 1.7 4.3 0.00 0.00 0.00 42 1016.8
20260504001004 72 286 1.7 5.2 0.00 0.00 0.00 41 1016.9
20260504000500 72 331 2.6 5.2 0.00 0.00 0.00 41 1016.9
20260504000005 72 273 1.7 5.2 0.00 0.00 0.00 40 1016.8
20260503235501 73 257 1.7 5.2 0.00 0.00 0.00 41 1016.8
20260503234501 73 336 0.9 6.1 0.00 0.00 0.00 40 1016.9
20260503234004 73 320 3.5 6.1 0.00 0.00 0.00 40 1017.0
20260503233505 73 313 2.6 4.3 0.00 0.00 0.00 39 1017.0
20260503233004 73 300 2.6 7.8 0.00 0.00 0.00 39 1016.9
20260503232503 74 336 2.6 7.8 0.00 0.00 0.00 39 1017.0
20260503232006 74 331 5.2 7.8 0.00 0.00 0.00 37 1017.0
20260503230006 75 333 4.3 8.7 0.00 0.00 0.00 37 1017.3
20260503225504 75 243 2.6 8.7 0.00 0.00 0.00 38 1017.2
20260503224500 75 360 3.5 7.8 0.00 0.00 0.00 37 1017.3
20260503224004 76 309 3.5 7.8 0.00 0.00 0.00 37 1017.4
20260503223504 76 329 1.7 11.3 0.00 0.00 0.00 37 1017.3
20260503223005 76 303 4.3 11.3 0.00 0.00 0.00 36 1017.3
20260503222503 76 296 5.2 8.7 0.00 0.00 0.00 35 1017.3